Sigonella, Italy

6:10 AM CEST on July 28, 2016 (GMT +0200)
Sigonella Mil

Weather History for LICZ - September, 2013

Change the Weather History Date:

Sunday, September 15, 2013

  Actual Average Record
Temperature  
Mean Temperature 76 °F -  
Max Temperature 89 °F 80 °F 97 °F (2015)
Min Temperature 62 °F 60 °F 54 °F (2012)
Cooling Degree Days 10    
Growing Degree Days 26 (Base 50)    
Moisture  
Dew Point 66 °F    
Average Humidity 82    
Maximum Humidity 100    
Minimum Humidity 39    
Precipitation  
Precipitation 0.08 in 0.07 in - ()
Sea Level Pressure  
Sea Level Pressure 30.00 in    
Wind  
Wind Speed 6 mph ()    
Max Wind Speed 16 mph    
Max Gust Speed -    
Visibility 6.5 miles    
Events Thunderstorm    
Averages and records for this station are not official NWS values.
T = Trace of Precipitation, MM = Missing Value Source: Averaged Metar Reports

Daily Weather History Graph

Daily Weather History Graph

Search for Another Location

Airport or City:

Trip Planner

Search our weather history database for the weather conditions in past years. The results will help you decide how hot, cold, wet, or windy it might be!

Date:

Astronomy

Sep. 15, 2013 Rise Set
Actual Time 6:42 AM CEST 7:08 PM CEST
Civil Twilight 6:16 AM CEST 7:34 PM CEST
Nautical Twilight 5:45 AM CEST 8:04 PM CEST
Astronomical Twilight 5:13 AM CEST 8:36 PM CEST
Moon 4:18 PM CEST (9/15) 2:05 AM CEST (9/15)
Length of Visible Light 13h 18m
Length of Day
12h 25m
Waxing Gibbous, 79% of the Moon is Illuminated
Sep 15
Waxing Gibbous
Sep 19
Full
Sep 27
Last Quarter
Oct 5
New
Oct 12
First Quarter

Hourly Weather History & Observations

Time (CEST) Temp. Heat Index Dew Point Humidity Pressure Visibility Wind Dir Wind Speed Gust Speed Precip Events Conditions
12:55 AM 68.0 °F - 68.0 °F 100% 30.09 in - WNW 6.9 mph - N/A   Clear
1:55 AM 68.0 °F - 68.0 °F 100% 30.06 in - WNW 5.8 mph - N/A   Clear
2:00 AM 67 °F - 67 °F 100% 30.09 in 6 mi WNW 5.8 mph - -  
2:55 AM 66.2 °F - 66.2 °F 100% 30.06 in - WNW 6.9 mph - N/A   Clear
3:55 AM 66.2 °F - 66.2 °F 100% 30.06 in - West 3.5 mph - N/A   Clear
4:55 AM 64.4 °F - 64.4 °F 100% 30.06 in 6.2 mi West 4.6 mph - N/A   Partly Cloudy
5:00 AM 64 °F - 64 °F 99% 30.07 in 6 mi West 4.6 mph - -   Scattered Clouds
5:55 AM 62.6 °F - 62.6 °F 100% 30.06 in 6.2 mi WNW 2.3 mph - N/A   Scattered Clouds
6:55 AM 62.6 °F - 62.6 °F 100% 30.04 in 6.2 mi West 2.3 mph - N/A   Scattered Clouds
7:55 AM 64.4 °F - 64.4 °F 100% 30.04 in 6.2 mi West 3.5 mph - N/A   Partly Cloudy
8:55 AM 69.8 °F - 64.4 °F 83% 30.04 in 6.2 mi WSW 3.5 mph - N/A   Partly Cloudy
9:55 AM 75.2 °F - 66.2 °F 73% 30.04 in 6.2 mi West 4.6 mph - N/A   Partly Cloudy
10:55 AM 77.0 °F - 64.4 °F 65% 30.04 in 6.2 mi North 4.6 mph - N/A   Partly Cloudy
11:00 AM 78 °F - 64 °F 54% 30.05 in 6 mi North 4.6 mph - -   Scattered Clouds
11:55 AM 75.2 °F - 57.2 °F 53% 30.04 in 6.2 mi NNE 3.5 mph - N/A   Partly Cloudy
12:55 PM 78.8 °F - 51.8 °F 39% 30.01 in 6.2 mi SSW 9.2 mph - N/A   Partly Cloudy
1:55 PM 77.0 °F - 57.2 °F 50% 29.98 in 6.2 mi East 16.1 mph - N/A   Partly Cloudy
2:00 PM 77 °F - 57 °F 39% 29.98 in 6 mi East 16.1 mph - -   Scattered Clouds
2:55 PM 84.2 °F 87.3 °F 68.0 °F 58% 29.95 in 6.2 mi East 13.8 mph - N/A   Partly Cloudy
3:55 PM 75.2 °F - 62.6 °F 65% 29.95 in 6.2 mi East 15.0 mph - N/A   Scattered Clouds
4:55 PM 78.8 °F - 69.8 °F 74% 29.92 in 6.2 mi ESE 10.4 mph - N/A   Scattered Clouds
5:00 PM 80 °F - 69 °F 62% 29.94 in 6 mi ESE 10.4 mph - -   Partly Cloudy
5:55 PM 77.0 °F - 68.0 °F 74% 29.95 in 6.2 mi East 9.2 mph - N/A   Scattered Clouds
6:55 PM 77.0 °F - 69.8 °F 78% 29.95 in 6.2 mi East 11.5 mph - N/A   Scattered Clouds
7:55 PM 75.2 °F - 73.4 °F 94% 29.92 in 6.2 mi East 6.9 mph - N/A   Partly Cloudy
8:00 PM 76 °F - 73 °F 86% 29.94 in 11 mi East 6.9 mph - -   Scattered Clouds
8:55 PM 75.2 °F - 73.4 °F 94% 29.95 in 6.2 mi North 3.5 mph - N/A   Partly Cloudy
9:55 PM 71.6 °F - 71.6 °F 100% 29.95 in - ENE 2.3 mph - N/A   Clear
10:55 PM 69.8 °F - 69.8 °F 100% 29.95 in - SE 1.2 mph - N/A   Clear
11:00 PM 70 °F - 70 °F 100% 29.95 in 11 mi SE 1.2 mph - -   Clear
11:55 PM 71.6 °F - 71.6 °F 100% 29.95 in 6.2 mi WSW 1.2 mph - N/A Thunderstorm Mostly Cloudy